Location: Clinton NY
(43.0598°N, 75.3602°W)
Time: 02:05:10
(UTC-04:00)

Amateur Radio Satellites - All Passes

Search period start: 23 August 2017 01:35
Search period end: 24 August 2017 01:35
Location: Clinton NY, 43.0598°N, 75.3602°W

Satellite Date Start Highest point End Downlink Frequencies (MHz)
Time Altitude Azimuth
NO-84 23 Aug 01:46:37 01:49:26 46° 324° (NW) 01:52:12 435.350 FM
NANOSAT C BR1 23 Aug 01:51:20 01:55:02 31° 291° (WNW) 01:58:45 145.865
M-CUBED/EXP-1 PRIME 23 Aug 01:55:08 01:58:36 23° 300° (WNW) 02:01:52 437.505
POLYITAN 1 23 Aug 01:58:25 02:01:50 24° 293° (WNW) 02:05:15 437.675
EO-79 23 Aug 02:14:05 02:16:53 18° 296° (WNW) 02:19:41 145.935-145.965
QB50P2 23 Aug 02:14:22 02:16:59 16° 296° (WNW) 02:19:36 145.880/145.840
BEESAT 23 Aug 02:19:03 02:22:40 22° 64° (ENE) 02:26:18 436.000
50 SAT 23 Aug 02:21:15 02:23:15 15° 267° (W) 02:25:17 437.505
Gurwin Techsat 1B 23 Aug 02:26:24 02:31:24 40° 98° (E) 02:36:22 435.225
YUBILEINY 23 Aug 02:30:04 02:38:17 43° 72° (ENE) 02:46:25 435.215
BUGSAT 1 23 Aug 02:31:26 02:35:15 43° 288° (WNW) 02:39:05 437.445
Oscar 19 23 Aug 02:34:22 02:39:35 72° 103° (ESE) 02:44:46 437.125/150
UKube-1 23 Aug 02:34:23 02:38:14 31° 263° (W) 02:42:07 .
DUCHIFAT 1 23 Aug 02:42:29 02:43:55 12° 299° (WNW) 02:45:22 145.980
AO-7 23 Aug 02:52:02 02:55:42 13° 87° (E) 02:59:22 .
ITUPSAT 1 23 Aug 02:53:52 02:58:23 45° 70° (ENE) 03:02:55 437.325
DX 1 23 Aug 03:03:41 03:05:05 11° 270° (W) 03:06:28 434.975-435.025
MOZHAYETS 4 23 Aug 03:18:50 03:23:20 67° 74° (ENE) 03:27:52
NO-84 23 Aug 03:26:29 03:27:24 11° 344° (NNW) 03:28:20 435.350 FM
CUBESAT XI-V 23 Aug 03:45:34 03:49:29 27° 67° (ENE) 03:53:26 437.345
BEESAT 23 Aug 03:55:39 04:00:09 43° 261° (W) 04:04:42 436.000
ITAMSAT 1 23 Aug 03:59:18 04:03:54 31° 96° (E) 04:08:27 435.822/435.867
Gurwin Techsat 1B 23 Aug 04:06:42 04:11:10 28° 295° (WNW) 04:15:38 435.225
Oscar 19 23 Aug 04:15:07 04:18:18 17° 300° (WNW) 04:21:29 437.125/150
AO-85 23 Aug 04:18:00 04:19:59 14° 110° (ESE) 04:21:59 145.980
YUBILEINY 23 Aug 04:27:01 04:35:02 43° 273° (W) 04:43:03 435.215
ITUPSAT 1 23 Aug 04:32:57 04:36:26 20° 267° (W) 04:39:55 437.325
BEESAT 3 23 Aug 04:39:09 04:42:54 40° 117° (ESE) 04:46:42 437.485
AO-7 23 Aug 04:41:32 04:49:53 72° 106° (ESE) 04:58:09 .
KKS-1 23 Aug 04:49:35 04:53:56 56° 73° (ENE) 04:58:20 437.445
MOZHAYETS 4 23 Aug 04:59:01 05:00:57 12° 271° (W) 05:02:54
BEESAT 2 23 Aug 04:59:16 05:02:20 21° 113° (ESE) 05:05:27 435.950
STARS 23 Aug 05:21:20 05:25:36 50° 72° (ENE) 05:29:52 437.465
PCSat 23 Aug 05:21:53 05:22:44 10° 30° (NNE) 05:23:37 145.827
CUBESAT XI-V 23 Aug 05:22:33 05:26:43 33° 264° (W) 05:30:57 437.345
SO-50 23 Aug 05:37:54 05:39:10 11° 31° (NNE) 05:40:27 436.795
ITAMSAT 1 23 Aug 05:38:43 05:43:20 34° 293° (WNW) 05:47:56 435.822/435.867
DOVE 4 23 Aug 05:51:29 05:55:26 30° 95° (E) 05:59:12 437.250
AO-85 23 Aug 05:56:05 05:59:55 53° 307° (NW) 06:03:46 145.980
BEESAT 3 23 Aug 06:17:22 06:20:36 23° 316° (NW) 06:23:53 437.485
NUDT-PHONESAT 23 Aug 06:20:29 06:22:22 13° 91° (E) 06:24:14 437.300
LilacSat-2 23 Aug 06:22:10 06:25:11 21° 94° (E) 06:28:10 437.200
XW-2D 23 Aug 06:23:15 06:26:12 21° 94° (E) 06:29:09 145.860 - 145.880
CUTE-I 23 Aug 06:26:03 06:30:06 22° 93° (E) 06:34:09 437.470
KKS-1 23 Aug 06:28:21 06:30:50 15° 269° (W) 06:33:19 437.445
XW-2B 23 Aug 06:34:07 06:37:24 26° 95° (E) 06:40:42 145.730 - 145.750
AO-7 23 Aug 06:35:10 06:41:58 29° 306° (NW) 06:48:45 .
BEESAT 2 23 Aug 06:36:06 06:39:51 37° 310° (NW) 06:43:40 435.950
NO-84 23 Aug 06:41:52 06:44:15 22° 28° (NNE) 06:46:44 435.350 FM
XW-2C 23 Aug 06:53:01 06:56:45 45° 99° (E) 07:00:27 145.795 - 145.815
STRAND 1 23 Aug 06:54:26 06:59:06 37° 68° (ENE) 07:03:46 437.568
STARS 23 Aug 06:59:32 07:02:12 16° 268° (W) 07:04:53 437.465
PCSat 23 Aug 07:02:27 07:07:38 43° 52° (NE) 07:12:47 145.827
XW-2F 23 Aug 07:03:01 07:06:49 57° 100° (E) 07:10:35 145.980 - 146.000
SO-50 23 Aug 07:16:12 07:20:41 52° 52° (NE) 07:25:10 436.795
KAITUO 1B 23 Aug 07:23:50 07:27:39 84° 102° (ESE) 07:31:28 145.475/437.950
CUBEBUG 2 23 Aug 07:26:20 07:26:50 10° 89° (E) 07:27:20 437.445
HO-68 23 Aug 07:27:48 07:33:56 30° 95° (E) 07:40:03 435.675
DOVE 4 23 Aug 07:29:18 07:33:02 26° 294° (WNW) 07:36:35 437.250
SEEDS 23 Aug 07:30:41 07:33:03 14° 90° (E) 07:35:24 437.485
NUDT-PHONESAT 23 Aug 07:52:53 07:56:27 43° 287° (WNW) 08:00:01 437.300
LilacSat-2 23 Aug 07:56:05 07:59:27 29° 290° (WNW) 08:02:48 437.200
XW-2D 23 Aug 07:57:02 08:00:23 29° 290° (WNW) 08:03:43 145.860 - 145.880
CUTE-I 23 Aug 08:05:17 08:10:25 50° 290° (WNW) 08:15:30 437.470
AAUSAT CUBESAT 2 23 Aug 08:08:08 08:10:52 17° 92° (E) 08:13:33 437.432
XW-2B 23 Aug 08:08:25 08:11:28 23° 292° (WNW) 08:14:31 145.730 - 145.750
XW-2A 23 Aug 08:14:40 08:17:46 32° 97° (E) 08:20:52 145.665 - 145.685
NO-84 23 Aug 08:18:50 08:21:45 43° 224° (SW) 08:24:51 435.350 FM
CUTE 1.7 + AOD 2 23 Aug 08:21:57 08:26:17 85° 104° (ESE) 08:30:34 437.475
XW-2C 23 Aug 08:28:26 08:30:32 14° 295° (WNW) 08:32:38 145.795 - 145.815
STRAND 1 23 Aug 08:33:59 08:38:19 28° 265° (W) 08:42:42 437.568
XW-2F 23 Aug 08:39:01 08:40:27 12° 297° (WNW) 08:41:52 145.980 - 146.000
PCSat 23 Aug 08:46:12 08:50:50 29° 251° (WSW) 08:55:28 145.827
UWE-3 23 Aug 08:46:54 08:51:03 47° 99° (E) 08:55:17 435.000/436.395/437.385
Oscar 11 23 Aug 08:47:18 08:50:17 18° 92° (E) 08:53:14 .
FO-29 23 Aug 08:47:55 08:54:55 46° 69° (ENE) 09:01:16 435.910
PRISM 23 Aug 08:56:16 08:57:18 11° 60° (ENE) 08:58:21 437.425
SO-50 23 Aug 08:57:31 09:00:46 19° 248° (WSW) 09:04:03 436.795
CUBEBUG 2 23 Aug 08:59:41 09:03:53 72° 285° (WNW) 09:08:12 437.445
SEEDS 23 Aug 09:04:53 09:09:02 51° 287° (WNW) 09:13:09 437.485
Tancredo 1 23 Aug 09:07:40 09:10:35 87° 329° (NNW) 09:13:30 437.200
O/OREOS (USA 219) 23 Aug 09:13:46 09:18:02 47° 108° (ESE) 09:22:22 437.305
HO-68 23 Aug 09:15:01 09:21:58 55° 293° (WNW) 09:28:53 435.675
ZACube-1 23 Aug 09:20:40 09:24:57 62° 101° (E) 09:29:18 437.345
ISS 23 Aug 09:25:08 09:28:10 35° 139° (SE) 09:31:12 437.550
nSIGHT-1 23 Aug 09:29:57 09:33:02 41° 140° (SE) 09:36:09 .
UNISAT 6 23 Aug 09:35:34 09:39:35 39° 71° (ENE) 09:43:34 437.425
AO-73 23 Aug 09:40:14 09:44:34 90° 255° (WSW) 09:48:58 145.935
AAUSAT CUBESAT 2 23 Aug 09:42:32 09:46:30 42° 288° (WNW) 09:50:26 437.432
XW-2A 23 Aug 09:48:14 09:50:14 15° 293° (WNW) 09:52:14 145.665 - 145.685
RS-15 23 Aug 09:57:40 10:07:57 34° 104° (ESE) 10:18:18 29.354- 29.394
CUTE 1.7 + AOD 2 23 Aug 10:00:52 10:01:25 10° 300° (WNW) 10:01:57 437.475
TIGRISAT 23 Aug 10:09:33 10:13:51 86° 81° (E) 10:18:09 435.000
Oscar 11 23 Aug 10:22:28 10:26:36 43° 288° (WNW) 10:30:44 .
DELFI C3 23 Aug 10:23:47 10:27:38 46° 99° (E) 10:31:26 145.870
UWE-3 23 Aug 10:24:25 10:27:10 17° 295° (WNW) 10:29:56 435.000/436.395/437.385
EO-88 23 Aug 10:25:52 10:29:05 27° 96° (E) 10:32:15 145.990 - 145.960
PRISM 23 Aug 10:27:47 10:31:57 77° 258° (WSW) 10:36:08 437.425
FO-29 23 Aug 10:33:11 10:39:59 37° 264° (W) 10:46:14 435.910
Tancredo 1 23 Aug 10:43:49 10:46:04 20° 345° (NNW) 10:48:19 437.200
O/OREOS (USA 219) 23 Aug 10:54:27 10:57:43 20° 306° (NW) 11:01:00 437.305
ZACube-1 23 Aug 10:58:34 11:00:45 14° 297° (WNW) 11:02:57 437.345
ISS 23 Aug 11:01:34 11:04:39 36° 337° (NNW) 11:07:43 437.550
M-CUBED/EXP-1 PRIME 23 Aug 11:05:44 11:10:09 53° 67° (ENE) 11:14:43 437.505
HO-68 23 Aug 11:05:55 11:08:09 12° 313° (NW) 11:10:23 435.675
nSIGHT-1 23 Aug 11:06:28 11:09:28 33° 338° (NNW) 11:12:29 .
NANOSAT C BR1 23 Aug 11:09:09 11:12:12 20° 66° (ENE) 11:15:14 145.865
Max Valier Satellite 23 Aug 11:11:03 11:14:42 57° 286° (WNW) 11:18:21 145.860
AIST 2D 23 Aug 11:11:20 11:14:41 48° 73° (ENE) 11:18:05 435.315
UNISAT 6 23 Aug 11:13:24 11:16:27 19° 267° (W) 11:19:29 437.425
POLYITAN 1 23 Aug 11:15:57 11:19:25 26° 68° (ENE) 11:22:53 437.675
EO-79 23 Aug 11:30:31 11:34:22 36° 70° (ENE) 11:38:13 145.935-145.965
QB50P2 23 Aug 11:30:43 11:34:38 40° 71° (ENE) 11:38:35 145.880/145.840
LO-87 23 Aug 11:46:51 11:50:07 33° 98° (E) 11:53:19 145.935 - 145.965
ESTCUBE 1 23 Aug 11:47:54 11:51:40 25° 94° (E) 11:55:23 437.505/2401.250
BUGSAT 1 23 Aug 11:48:37 11:50:32 13° 63° (ENE) 11:52:27 437.445
DUCHIFAT 1 23 Aug 11:56:54 12:00:59 56° 74° (ENE) 12:05:04 145.980
DELFI C3 23 Aug 11:59:44 12:02:00 15° 296° (WNW) 12:04:15 145.870
EO-88 23 Aug 11:59:50 12:02:34 20° 292° (WNW) 12:05:18 145.990 - 145.960
RS-15 23 Aug 12:07:05 12:19:23 77° 306° (NW) 12:31:48 29.354- 29.394
Gurwin Techsat 1B 23 Aug 12:13:41 12:14:35 10° 55° (NE) 12:15:29 435.225
Oscar 19 23 Aug 12:15:28 12:18:32 16° 60° (ENE) 12:21:37 437.125/150
Tancredo 1 23 Aug 12:20:07 12:22:00 16° 5° (N) 12:23:52 437.200
ISS 23 Aug 12:39:24 12:41:47 18° 356° (N) 12:44:10 437.550
M-CUBED/EXP-1 PRIME 23 Aug 12:41:42 12:44:49 18° 264° (W) 12:47:59 437.505
NANOSAT C BR1 23 Aug 12:43:46 12:47:39 37° 262° (W) 12:51:34 145.865
nSIGHT-1 23 Aug 12:44:13 12:46:33 18° 358° (N) 12:48:53 .
AO-85 23 Aug 12:45:45 12:49:04 22° 44° (NE) 12:52:33 145.980
AIST 2D 23 Aug 12:47:51 12:48:10 10° 270° (W) 12:48:29 435.315
POLYITAN 1 23 Aug 12:51:29 12:55:06 28° 264° (W) 12:58:44 437.675
BEESAT 3 23 Aug 12:54:55 12:58:35 33° 48° (NE) 13:02:10 437.485
SPROUT 23 Aug 13:05:17 13:09:18 40° 98° (E) 13:13:18 437.525
EO-79 23 Aug 13:07:09 13:10:14 20° 267° (W) 13:13:18 145.935-145.965
QB50P2 23 Aug 13:07:43 13:10:35 18° 267° (W) 13:13:29 145.880/145.840
DX 1 23 Aug 13:13:53 13:14:56 11° 89° (E) 13:15:58 434.975-435.025
BEESAT 2 23 Aug 13:15:23 13:18:32 21° 43° (NE) 13:21:40 435.950
VELOX 1 23 Aug 13:18:37 13:22:52 44° 99° (E) 13:27:04 145.980
LO-87 23 Aug 13:21:06 13:23:15 15° 294° (WNW) 13:25:24 145.935 - 145.965
BUGSAT 1 23 Aug 13:21:25 13:25:26 57° 259° (W) 13:29:26 437.445
ESTCUBE 1 23 Aug 13:24:25 13:28:30 33° 291° (WNW) 13:32:34 437.505/2401.250
DUCHIFAT 1 23 Aug 13:35:10 13:37:00 13° 270° (W) 13:38:50 145.980
50 SAT 23 Aug 13:40:24 13:43:16 26° 96° (E) 13:46:07 437.505
Gurwin Techsat 1B 23 Aug 13:48:16 13:53:33 70° 73° (ENE) 13:58:51 435.225
AO-7 23 Aug 13:51:12 13:57:41 26° 52° (NE) 14:04:09 .
Oscar 19 23 Aug 13:52:06 13:57:14 73° 257° (WSW) 14:02:26 437.125/150
Tancredo 1 23 Aug 13:55:03 13:57:45 35° 25° (NNE) 14:00:28 437.200
ISS 23 Aug 14:16:17 14:19:04 25° 17° (NNE) 14:21:50 437.550
UKube-1 23 Aug 14:19:51 14:23:53 37° 98° (E) 14:27:52 .
nSIGHT-1 23 Aug 14:20:53 14:23:42 26° 18° (NNE) 14:26:30 .
RS-15 23 Aug 14:23:31 14:34:17 33° 335° (NNW) 14:44:58 29.354- 29.394
AO-85 23 Aug 14:25:29 14:29:42 52° 241° (WSW) 14:34:13 145.980
BEESAT 3 23 Aug 14:32:45 14:36:00 24° 246° (WSW) 14:39:11 437.485
SPROUT 23 Aug 14:41:55 14:44:55 19° 295° (WNW) 14:47:53 437.525
DX 1 23 Aug 14:47:15 14:51:35 71° 286° (WNW) 14:55:53 434.975-435.025
BEESAT 2 23 Aug 14:52:36 14:56:30 45° 242° (WSW) 15:00:20 435.950
VELOX 1 23 Aug 14:55:53 14:58:58 19° 296° (WNW) 15:02:03 145.980
ITUPSAT 1 23 Aug 14:56:18 14:57:00 10° 88° (E) 14:57:41 437.325
50 SAT 23 Aug 15:13:25 15:15:45 18° 293° (WNW) 15:18:04 437.505
MOZHAYETS 4 23 Aug 15:14:09 15:16:45 15° 90° (E) 15:19:20
ITAMSAT 1 23 Aug 15:17:58 15:23:01 54° 71° (ENE) 15:28:04 435.822/435.867
Tancredo 1 23 Aug 15:30:20 15:32:50 27° 223° (SW) 15:35:21 437.200
Gurwin Techsat 1B 23 Aug 15:30:55 15:34:00 15° 270° (W) 15:37:06 435.225
YUBILEINY 23 Aug 15:32:00 15:40:16 48° 88° (E) 15:48:31 435.215
AO-7 23 Aug 15:41:11 15:49:34 82° 253° (WSW) 15:57:59 .
ISS 23 Aug 15:52:33 15:55:49 76° 215° (SW) 15:59:03 437.550
BEESAT 23 Aug 15:54:25 15:58:57 42° 99° (E) 16:03:29 436.000
UKube-1 23 Aug 15:56:24 15:59:40 21° 295° (WNW) 16:02:55 .
nSIGHT-1 23 Aug 15:57:03 16:00:18 65° 216° (SW) 16:03:30 .
ITUPSAT 1 23 Aug 16:30:38 16:35:27 86° 281° (W) 16:40:14 437.325
RS-15 23 Aug 16:42:00 16:51:55 27° 10° (N) 17:01:33 29.354- 29.394
MOZHAYETS 4 23 Aug 16:49:42 16:54:16 59° 287° (WNW) 16:58:48
DOVE 4 23 Aug 16:56:33 17:01:24 39° 70° (ENE) 17:06:07 437.250
ITAMSAT 1 23 Aug 16:59:04 17:02:47 20° 268° (W) 17:06:31 435.822/435.867
LilacSat-2 23 Aug 17:06:11 17:07:55 13° 64° (ENE) 17:09:40 437.200
XW-2D 23 Aug 17:06:41 17:08:18 12° 64° (ENE) 17:09:56 145.860 - 145.880
XW-2B 23 Aug 17:17:05 17:19:22 16° 65° (ENE) 17:21:40 145.730 - 145.750
CUBESAT XI-V 23 Aug 17:17:21 17:22:01 57° 100° (E) 17:26:38 437.345
YUBILEINY 23 Aug 17:29:06 17:37:11 40° 289° (WNW) 17:45:18 435.215
BEESAT 23 Aug 17:32:47 17:36:28 23° 296° (WNW) 17:40:07 436.000
XW-2C 23 Aug 17:35:22 17:38:29 25° 69° (ENE) 17:41:37 145.795 - 145.815
AO-7 23 Aug 17:38:37 17:43:31 17° 271° (W) 17:48:26 .
O/OREOS (USA 219) 23 Aug 17:44:42 17:47:08 14° 50° (NE) 17:49:34 437.305
XW-2F 23 Aug 17:44:44 17:48:02 30° 70° (ENE) 17:51:22 145.980 - 146.000
CUTE-I 23 Aug 17:48:25 17:53:22 40° 68° (ENE) 17:58:20 437.470
HO-68 23 Aug 17:58:10 18:03:50 26° 58° (ENE) 18:09:29 435.675
KAITUO 1B 23 Aug 18:04:25 18:07:55 41° 72° (ENE) 18:11:28 145.475/437.950
ITUPSAT 1 23 Aug 18:11:09 18:12:29 11° 302° (WNW) 18:13:49 437.325
KKS-1 23 Aug 18:15:44 18:20:11 83° 287° (WNW) 18:24:36 437.445
SEEDS 23 Aug 18:24:11 18:25:51 12° 62° (ENE) 18:27:32 437.485
CUBEBUG 2 23 Aug 18:26:02 18:26:37 10° 61° (ENE) 18:27:13 437.445
NUDT-PHONESAT 23 Aug 18:32:17 18:35:57 89° 247° (WSW) 18:39:40 437.300
DOVE 4 23 Aug 18:34:39 18:39:07 28° 266° (W) 18:43:29 437.250
LilacSat-2 23 Aug 18:38:04 18:41:45 50° 260° (W) 18:45:29 437.200
XW-2D 23 Aug 18:38:22 18:42:02 51° 261° (W) 18:45:45 145.860 - 145.880
STARS 23 Aug 18:45:36 18:49:59 86° 103° (ESE) 18:54:20 437.465
XW-2A 23 Aug 18:48:01 18:49:40 13° 66° (ENE) 18:51:19 145.665 - 145.685
XW-2B 23 Aug 18:49:41 18:53:13 39° 262° (W) 18:56:48 145.730 - 145.750
CUBESAT XI-V 23 Aug 18:55:54 18:58:55 17° 297° (WNW) 19:01:57 437.345
RS-15 23 Aug 18:56:26 19:08:14 52° 42° (NE) 19:19:24 29.354- 29.394
AAUSAT CUBESAT 2 23 Aug 18:59:53 19:01:56 13° 63° (ENE) 19:03:59 437.432
STRAND 1 23 Aug 19:06:24 19:07:38 11° 88° (E) 19:08:54 437.568
XW-2C 23 Aug 19:09:36 19:12:36 23° 265° (W) 19:15:39 145.795 - 145.815
CUTE 1.7 + AOD 2 23 Aug 19:15:00 19:19:11 65° 75° (ENE) 19:23:26 437.475
XW-2F 23 Aug 19:19:31 19:22:13 19° 267° (W) 19:24:56 145.980 - 146.000
O/OREOS (USA 219) 23 Aug 19:22:33 19:27:06 76° 249° (WSW) 19:31:39 437.305
CUTE-I 23 Aug 19:28:56 19:33:30 28° 265° (W) 19:38:04 437.470
KAITUO 1B 23 Aug 19:40:12 19:42:08 14° 269° (W) 19:44:04 145.475/437.950
Oscar 11 23 Aug 19:43:27 19:46:06 16° 64° (ENE) 19:48:45 .
HO-68 23 Aug 19:43:52 19:50:58 68° 256° (WSW) 19:58:07 435.675
UWE-3 23 Aug 19:44:46 19:48:42 41° 72° (ENE) 19:52:36 435.000/436.395/437.385
SEEDS 23 Aug 19:56:46 20:00:57 69° 259° (W) 20:05:11 437.485
CUBEBUG 2 23 Aug 19:58:23 20:02:38 79° 259° (W) 20:06:49 437.445
ZACube-1 23 Aug 20:17:15 20:21:15 51° 73° (ENE) 20:25:16 437.345
XW-2A 23 Aug 20:19:01 20:22:05 35° 262° (W) 20:25:11 145.665 - 145.685
STARS 23 Aug 20:24:48 20:25:37 10° 301° (WNW) 20:26:27 437.465
AAUSAT CUBESAT 2 23 Aug 20:32:46 20:36:53 59° 260° (W) 20:41:02 437.432
AO-73 23 Aug 20:36:23 20:40:29 76° 75° (ENE) 20:44:38 145.935
STRAND 1 23 Aug 20:42:22 20:47:30 89° 293° (WNW) 20:52:37 437.568
CUTE 1.7 + AOD 2 23 Aug 20:54:07 20:55:27 11° 271° (W) 20:56:48 437.475
EO-88 23 Aug 21:05:23 21:07:29 15° 65° (ENE) 21:09:35 145.990 - 145.960
RS-15 23 Aug 21:09:24 21:20:56 57° 248° (WSW) 21:31:52 29.354- 29.394
DELFI C3 23 Aug 21:09:50 21:13:22 30° 70° (ENE) 21:16:53 145.870
Oscar 11 23 Aug 21:17:38 21:21:48 51° 260° (W) 21:26:03 .
UWE-3 23 Aug 21:22:38 21:25:21 17° 268° (W) 21:28:03 435.000/436.395/437.385
SO-50 23 Aug 21:34:02 21:35:51 12° 108° (ESE) 21:37:38 436.795
HO-68 23 Aug 21:38:25 21:39:57 11° 275° (W) 21:41:31 435.675
FO-29 23 Aug 21:42:11 21:46:52 28° 94° (E) 21:51:19 435.910
PCSat 23 Aug 21:45:26 21:50:07 31° 110° (ESE) 21:54:51 145.827
Max Valier Satellite 23 Aug 21:50:16 21:53:53 67° 76° (ENE) 21:57:31 145.860
ZACube-1 23 Aug 21:55:48 21:57:51 13° 270° (W) 21:59:55 437.345
TIGRISAT 23 Aug 22:00:52 22:03:35 16° 92° (E) 22:06:20 435.000
PRISM 23 Aug 22:09:45 22:11:43 13° 91° (E) 22:13:40 437.425
STRAND 1 23 Aug 22:23:46 22:25:55 13° 302° (WNW) 22:28:03 437.568
LO-87 23 Aug 22:24:25 22:26:47 17° 67° (ENE) 22:29:09 145.935 - 145.965
EO-88 23 Aug 22:37:25 22:40:49 38° 262° (W) 22:44:16 145.990 - 145.960
DELFI C3 23 Aug 22:45:01 22:48:08 22° 266° (W) 22:51:16 145.870
ESTCUBE 1 23 Aug 22:48:16 22:52:00 26° 67° (ENE) 22:55:45 437.505/2401.250
UNISAT 6 23 Aug 23:02:03 23:06:24 80° 103° (ESE) 23:10:49 437.425
SO-50 23 Aug 23:11:09 23:15:40 77° 305° (NW) 23:20:12 436.795
FO-29 23 Aug 23:27:06 23:32:06 36° 294° (WNW) 23:36:48 435.910
PCSat 23 Aug 23:28:14 23:33:22 41° 308° (NW) 23:38:32 145.827
RS-15 23 Aug 23:29:26 23:30:18 10° 269° (W) 23:31:10 29.354- 29.394
TIGRISAT 23 Aug 23:36:22 23:40:31 47° 288° (WNW) 23:44:44 435.000
NO-84 23 Aug 23:38:32 23:39:05 10° 127° (SE) 23:39:38 435.350 FM
PRISM 23 Aug 23:43:17 23:47:19 53° 287° (WNW) 23:51:17 437.425
LO-87 23 Aug 23:56:46 23:59:59 31° 263° (W) 00:03:13 145.935 - 145.965
SPROUT 23 Aug 23:59:17 00:03:09 35° 70° (ENE) 00:07:01 437.525
AIST 2D 24 Aug 00:08:11 00:11:42 53° 100° (E) 00:15:10 435.315
DX 1 24 Aug 00:10:11 00:11:57 12° 60° (ENE) 00:13:42 434.975-435.025
50 SAT 24 Aug 00:13:32 00:14:56 12° 65° (ENE) 00:16:19 437.505
VELOX 1 24 Aug 00:16:22 00:20:36 44° 71° (ENE) 00:24:51 145.980
M-CUBED/EXP-1 PRIME 24 Aug 00:18:19 00:22:07 30° 100° (E) 00:25:39 437.505
ESTCUBE 1 24 Aug 00:24:37 00:28:40 32° 264° (W) 00:32:45 437.505/2401.250
NANOSAT C BR1 24 Aug 00:26:49 00:30:31 30° 96° (E) 00:34:13 145.865
POLYITAN 1 24 Aug 00:34:31 00:38:30 40° 98° (E) 00:42:29 437.675
UNISAT 6 24 Aug 00:41:18 00:42:30 11° 299° (WNW) 00:43:41 437.425
EO-79 24 Aug 00:49:14 00:53:24 60° 100° (E) 00:57:33 145.935-145.965
QB50P2 24 Aug 00:49:44 00:53:57 67° 101° (E) 00:58:10 145.880/145.840
SO-50 24 Aug 00:54:28 00:56:53 14° 325° (NW) 00:59:18 436.795
BUGSAT 1 24 Aug 01:02:50 01:05:34 17° 93° (E) 01:08:18 437.445
NO-84 24 Aug 01:13:11 01:16:06 63° 322° (NW) 01:18:55 435.350 FM
UKube-1 24 Aug 01:14:57 01:18:54 36° 69° (ENE) 01:22:52 .
DUCHIFAT 1 24 Aug 01:15:08 01:19:20 88° 285° (WNW) 01:23:31 145.980
PCSat 24 Aug 01:18:03 01:18:18 10° 331° (NNW) 01:18:33 145.827
